This is the latest recevied weather packets stored in our database for station/object KB2AHZ. If no packets are shown the sender has not sent any weather packets the latest 10 day(s).
| Time | Temp. | Humidity | Pressure | Rain* | Wind** | Luminosity | Snow |
|---|---|---|---|---|---|---|---|
| 1777839906 | 18.33° C | 35% | 1016.8 hPa | 0 mm | - | 589 W/m² | - |
| 1777839604 | 18.33° C | 34% | 1017 hPa | 0 mm | - | 604 W/m² | - |
| 1777839302 | 18.33° C | 33% | 1017 hPa | 0 mm | - | 620 W/m² | - |
| 1777838999 | 17.78° C | 32% | 1016.9 hPa | 0 mm | - | 637 W/m² | - |
| 1777838695 | 17.78° C | 35% | 1017.2 hPa | 0 mm | - | 651 W/m² | - |
| 1777838392 | 17.78° C | 35% | 1016.9 hPa | 0 mm | - | 666 W/m² | - |
| 1777838089 | 17.78° C | 32% | 1017 hPa | 0 mm | - | 684 W/m² | - |
| 1777837785 | 17.78° C | 33% | 1017.3 hPa | 0 mm | - | 702 W/m² | - |
| 1777837483 | 17.78° C | 32% | 1017.3 hPa | 0 mm | - | 715 W/m² | - |
| 1777837178 | 17.78° C | 33% | 1017.1 hPa | 0 mm | - | 733 W/m² | - |
| 1777836874 | 17.78° C | 36% | 1017.5 hPa | 0 mm | - | 742 W/m² | - |
| 1777836570 | 17.22° C | 34% | 1017.6 hPa | 0 mm | - | 757 W/m² | - |
| 1777836266 | 18.33° C | 36% | 1017.5 hPa | 0 mm | - | 774 W/m² | - |
| 1777835962 | 17.78° C | 37% | 1017.6 hPa | 0 mm | - | 783 W/m² | - |
| 1777835660 | 17.78° C | 34% | 1017.5 hPa | 0 mm | - | 796 W/m² | - |
| 1777835356 | 18.33° C | 34% | 1017.7 hPa | 0 mm | - | 808 W/m² | - |
| 1777835054 | 17.78° C | 36% | 1017.8 hPa | 0 mm | - | 819 W/m² | - |
| 1777834750 | 17.22° C | 35% | 1017.8 hPa | 0 mm | - | 832 W/m² | - |
| 1777834447 | 17.22° C | 38% | 1018 hPa | 0 mm | - | 845 W/m² | - |
| 1777834146 | 16.67° C | 35% | 1018 hPa | 0 mm | - | 857 W/m² | - |
| 1777833843 | 16.67° C | 34% | 1017.9 hPa | 0 mm | - | 864 W/m² | - |
| 1777833539 | 17.78° C | 34% | 1018.1 hPa | 0 mm | - | 872 W/m² | - |
| 1777833236 | 16.67° C | 34% | 1018 hPa | 0 mm | - | 883 W/m² | - |
| 1777832933 | 17.22° C | 35% | 1018.3 hPa | 0 mm | - | 889 W/m² | - |
| 1777832632 | 17.78° C | 35% | 1018.3 hPa | 0 mm | - | 897 W/m² | - |
* Rain latest hour (hover to see other rain measurements)
** Current wind speed in m/s (hover to see current wind gust speed)